Weather in Ishnya

Russia / Yaroslavl Oblast     57°11′32″N   39°21′22″E
temp.,
°C
wind,
m/s
gust,
m/s
humid.,
%
clouds,
%
prec.,
mm/h
press.,
hPa
HPBL,
m
12 may, wed
wed1200:00+10se33830 0.0 102725
03:00+9ese22900 0.0 102811
06:00+11ene23895 0.0 102892
09:00+16ene3577100 0.0 1027387
12:00+21ene576556 0.0 1026907
15:00+22e696193 0.1 10241492
18:00+20e6117196 1.2 1022527
21:00+13e479019 4.3 1023157
13 may, thu
thu1300:00+13ese4109360 0.0 1023402
03:00+12ese369732 0.0 1023182
06:00+12ese389623 0.0 1022255
09:00+16ese4982100 0.0 1022607
12:00+20se576617 0.4 10191227
15:00+21ese5964100 1.9 10161513
18:00+15se51094100 6.3 1016602
21:00+14sse4119568 7.3 1015512
14 may, fri
fri1400:00+12s499833 0.1 1016307
03:00+8sw3895100 0.1 1017214
06:00+8ssw259195 0.0 1019161
09:00+13ssw4674100 0.0 1019597
12:00+16s4561100 0.0 10191007
15:00+19sse3555100 0.0 10181140
18:00+19se367599 0.1 1016383
21:00+15se4890100 0.7 1015149
15 may, sat
sat1500:00+15se41097100 1.1 1014254
03:00+14se41296100 1.9 1013343
06:00+15se389597 0.1 1011223
09:00+19s41083100 0.6 1011590
12:00+23s466482 1.9 1010887
15:00+19sw2584100 5.8 1009202
18:00+20s38785 0.6 10081040
21:00+15s411905 2.0 1008223
16 may, sun
sun1600:00+14s39955 0.1 1008195
03:00+13ssw38965 0.2 1008165
06:00+13sw4119065 0.1 1009399
09:00+16sw610741 0.1 1010845
12:00+19sw695952 0.1 10111784
15:00+17wsw697296 0.6 10121087
18:00+17wsw58745 0.2 1013910
21:00+13sw34885 0.3 101551